UAE87J OMDB-EHAM

Flight info

Callsign UAE87J
Flight time N/A
Altitude 41000
Route DAVMO M318 GABKO M317 IMGOD L319 OTENA M317 DASIS UL746 ODERO L621 REVDA DCT KARIL DCT MAKAL DCT ELMEK DCT VEXIL DCT KATCE DCT NORKU
Aircraft A388/J-SADE2E3FGHIJ3J4J5M1RWXY/LB1D1

Departure

Time 2026-04-22 09:55
Airport Dubai International Airport (OMDB)

Arrival

Time N/A
Airport Amsterdam Airport Schiphol (EHAM)
Time Latitude Longitude Altitude Speed Heading
2026-04-22 09:45 25.23375 55.39124 26 ft 0 kts 214°
2026-04-22 09:48 25.23382 55.39128 25 ft 2 kts 212°
2026-04-22 09:49 25.23396 55.39138 26 ft 2 kts 212°
2026-04-22 09:49 25.23410 55.39148 26 ft 2 kts 212°
2026-04-22 09:49 25.23424 55.39157 25 ft 2 kts 206°
2026-04-22 09:49 25.23440 55.39162 24 ft 2 kts 188°
2026-04-22 09:50 25.23457 55.39160 25 ft 2 kts 162°
2026-04-22 09:50 25.23458 55.39159 25 ft 5 kts 144°
2026-04-22 09:50 25.23445 55.39171 25 ft 0 kts 130°
2026-04-22 09:50 25.23445 55.39170 25 ft 0 kts 131°
2026-04-22 09:52 25.23402 55.39239 27 ft 21 kts 122°
2026-04-22 09:52 25.23371 55.39302 27 ft 9 kts 91°
2026-04-22 09:53 25.23393 55.39365 27 ft 10 kts 56°
2026-04-22 09:53 25.23449 55.39417 27 ft 12 kts 33°
2026-04-22 09:53 25.23525 55.39467 27 ft 14 kts 24°
2026-04-22 09:53 25.23603 55.39452 27 ft 12 kts 316°
2026-04-22 09:54 25.23628 55.39417 27 ft 0 kts 300°
2026-04-22 09:54 25.23691 55.39299 27 ft 49 kts 301°
2026-04-22 09:54 25.24004 55.38740 27 ft 118 kts 302°
2026-04-22 09:54 25.24521 55.37813 31 ft 161 kts 301°
2026-04-22 09:55 25.25101 55.36744 431 ft 165 kts 311°
2026-04-22 09:55 25.26098 55.36070 614 ft 177 kts 347°
2026-04-22 09:55 25.27352 55.36187 750 ft 192 kts 21°
2026-04-22 09:55 25.28456 55.37034 1146 ft 195 kts 40°
2026-04-22 09:56 25.29530 55.38002 1691 ft 207 kts 36°
2026-04-22 09:56 25.30808 55.38933 1997 ft 233 kts 30°
2026-04-22 09:56 25.32326 55.39812 2350 ft 259 kts 26°
2026-04-22 09:56 25.34037 55.40671 2700 ft 281 kts 24°
2026-04-22 09:57 25.35845 55.41524 3348 ft 284 kts 23°
2026-04-22 09:57 25.37681 55.42378 3946 ft 289 kts 23°
2026-04-22 09:57 25.39550 55.43248 4543 ft 293 kts 22°
2026-04-22 09:57 25.41425 55.44127 5208 ft 295 kts 22°
2026-04-22 09:58 25.43331 55.45024 5753 ft 301 kts 22°
2026-04-22 09:58 25.45262 55.45935 6311 ft 303 kts 22°
2026-04-22 09:58 25.47206 55.46853 6834 ft 306 kts 22°
2026-04-22 09:58 25.49174 55.47783 7395 ft 308 kts 21°
2026-04-22 09:59 25.51150 55.48717 7965 ft 309 kts 21°
2026-04-22 09:59 25.53133 55.49650 8535 ft 311 kts 21°
2026-04-22 09:59 25.55127 55.50589 9148 ft 312 kts 21°
2026-04-22 09:59 25.57157 55.51545 9600 ft 319 kts 21°
2026-04-22 10:00 25.59204 55.52512 10158 ft 320 kts 21°
2026-04-22 10:00 25.61249 55.53480 10782 ft 319 kts 21°
2026-04-22 10:00 25.63298 55.54450 11341 ft 321 kts 20°
2026-04-22 10:00 25.65358 55.55424 11891 ft 322 kts 20°
2026-04-22 10:01 25.67423 55.56401 12424 ft 323 kts 20°
2026-04-22 10:01 25.69494 55.57381 12999 ft 324 kts 20°
2026-04-22 10:01 25.71573 55.58365 13522 ft 326 kts 20°
2026-04-22 10:01 25.73664 55.59355 13978 ft 328 kts 20°
2026-04-22 10:02 25.75763 55.60350 14430 ft 329 kts 20°
2026-04-22 10:02 25.77874 55.61351 14882 ft 330 kts 19°
2026-04-22 10:02 25.79991 55.62355 15312 ft 332 kts 19°
2026-04-22 10:02 25.82125 55.63367 15754 ft 334 kts 19°
2026-04-22 10:03 25.84268 55.64384 16204 ft 336 kts 19°
2026-04-22 10:03 25.86391 55.65507 16614 ft 342 kts 26°
2026-04-22 10:03 25.88391 55.66886 17081 ft 344 kts 28°
2026-04-22 10:03 25.90441 55.68328 17547 ft 346 kts 28°
2026-04-22 10:04 25.90906 55.68656 17660 ft 346 kts 28°
2026-04-22 10:04 25.90908 55.68657 17660 ft 346 kts 28°
2026-04-22 10:05 25.90960 55.68694 17660 ft 346 kts 28°